Tracking 17143 objects as of 25-May-2015
HD Live streaming from Space Station

ESSA 1 (OT-3)

Track ESSA 1 (OT-3) now!
10-day predictions
ESSA 1 (OT-3) is classified as:


NORAD ID: 1982
Int'l Code: 1966-008A
Perigee: 686.0 km
Apogee: 801.3 km
Inclination: 97.9 °
Period: 99.5 minutes
Semi major axis: 7114 km
RCS: 0.7257 m2 (medium)
Launch date: February 3, 1966
Source: United States (US)
Your satellite tracking list
Your tracking list is empty





NASA's NSSDC Master Catalog

Two Line Element Set (TLE):
1 01982U 66008A   15144.33106381  .00000088  00000-0  35007-4 0  9995
2 01982 097.9195 039.4393 0081007 321.3751 038.1665 14.46684266594128

Source of the keplerian elements: AFSPC

N2YO: 356